period_start,C,m1,H,J0,J1,J2,J3,J4,J5,JA,JB,JC,JD,JJ,JK,JN,#
2014-03-12 00:00:18,0.24,2.73,0.00,22.90,28.07,30.94,5.93,31.46,1013.20,2037.39,2508.77,2595.37,2818.02,349.72,322.72,16.42,0000 0000 0000 0000 000000
2014-03-12 00:01:18,0.22,2.73,0.00,22.92,28.07,30.95,5.94,31.63,1013.20,2037.38,2508.29,2595.13,2817.52,348.54,321.62,16.42,0000 0000 0000 0000 000000
2014-03-12 00:02:19,0.26,2.74,0.00,22.92,28.08,30.98,6.00,31.33,1013.20,2037.47,2507.87,2594.82,2817.18,349.89,323.17,16.43,0000 0000 0000 0000 000000
2014-03-12 00:03:19,0.32,2.74,0.00,22.92,28.09,30.96,6.02,31.50,1013.20,2037.48,2507.34,2594.35,2816.82,349.44,322.57,16.44,0000 0000 0000 0000 000000
2014-03-12 00:04:19,0.31,2.74,0.00,22.92,28.10,30.95,6.06,31.42,1013.20,2037.44,2506.91,2594.10,2816.33,350.38,323.17,16.44,0000 0000 0000 0000 000000
2014-03-12 00:05:19,0.22,2.74,0.00,22.92,28.10,30.98,6.13,31.63,1013.20,2037.35,2506.36,2593.66,2816.08,350.32,323.26,16.45,0000 0000 0000 0000 000000
2014-03-12 00:06:20,0.22,2.74,0.00,22.93,28.10,30.95,6.15,31.75,1013.20,2037.28,2505.85,2593.24,2815.58,350.96,324.11,16.45,0000 0000 0000 0000 000000
2014-03-12 00:07:20,0.23,2.74,0.00,22.94,28.10,30.95,6.06,31.58,1013.20,2037.22,2505.33,2592.93,2815.21,349.78,322.97,16.46,0000 0000 0000 0000 000000
2014-03-12 00:08:20,0.21,2.74,0.00,22.94,28.10,30.97,5.96,31.63,1013.19,2037.14,2504.80,2592.39,2814.83,350.45,323.35,16.47,0000 0000 0000 0000 000000
2014-03-12 00:09:20,0.26,2.75,0.00,22.94,28.11,31.00,6.08,31.46,1013.20,2037.10,2504.30,2592.12,2814.32,350.03,322.96,16.47,0000 0000 0000 0000 000000
2014-03-12 00:10:21,0.25,2.75,0.00,22.96,28.12,30.98,5.98,31.71,1013.20,2037.07,2503.81,2591.70,2814.00,350.10,323.01,16.48,0000 0000 0000 0000 000000
2014-03-12 00:11:21,0.26,2.75,0.00,22.97,28.12,30.98,6.07,31.67,1013.20,2037.04,2503.30,2591.26,2813.42,350.27,323.56,16.48,0000 0000 0000 0000 000000
2014-03-12 00:12:21,0.32,2.75,0.00,22.97,28.12,31.00,6.02,31.83,1013.19,2037.01,2502.85,2590.97,2813.13,349.02,321.80,16.49,0000 0000 0000 0000 000000
2014-03-12 00:13:21,0.21,2.75,0.00,22.99,28.12,30.97,5.93,31.63,1013.19,2037.05,2502.32,2590.45,2812.72,349.54,322.45,16.49,0000 0000 0000 0000 000000
2014-03-12 00:14:22,0.37,2.75,0.00,22.99,28.12,30.98,6.03,31.33,1013.17,2037.04,2501.74,2590.16,2812.27,350.31,322.83,16.50,0000 0000 0000 0000 000000
2014-03-12 00:15:22,0.28,2.76,0.00,23.00,28.14,31.03,6.18,31.67,1013.17,2037.04,2501.27,2589.76,2811.97,350.78,323.42,16.51,0000 0000 0000 0000 000000
2014-03-12 00:16:22,0.27,2.76,0.00,23.00,28.15,31.03,5.98,31.21,1013.17,2037.03,2500.78,2589.28,2811.42,349.75,322.64,16.51,0000 0000 0000 0000 000000
2014-03-12 00:17:23,0.30,2.76,0.00,23.02,28.15,30.99,6.03,31.79,1013.19,2037.02,2500.28,2588.99,2811.09,349.61,322.49,16.52,0000 0000 0000 0000 000000
2014-03-12 00:18:23,0.26,2.76,0.00,23.03,28.15,31.00,5.97,31.42,1013.20,2037.00,2499.85,2588.47,2810.54,350.53,323.33,16.52,0000 0000 0000 0000 000000
2014-03-12 00:19:23,0.32,2.76,0.00,23.04,28.15,31.00,6.07,31.58,1013.16,2037.01,2499.33,2588.16,2810.18,349.81,322.64,16.53,0000 0000 0000 0000 000000
2014-03-12 00:20:23,0.27,2.76,0.00,23.05,28.15,31.02,6.17,31.92,1013.13,2037.00,2498.82,2587.84,2809.73,350.93,323.66,16.54,0000 0000 0000 0000 000000
2014-03-12 00:21:24,0.29,2.77,0.00,23.05,28.16,30.98,6.08,31.50,1013.08,2037.00,2498.30,2587.36,2809.27,351.06,323.84,16.54,0000 0000 0000 0000 000000
2014-03-12 00:22:24,0.32,2.77,0.00,23.07,28.17,30.99,5.91,31.75,1012.99,2037.00,2497.86,2587.09,2808.98,348.70,321.03,16.55,0000 0000 0000 0000 000000
2014-03-12 00:23:24,0.26,2.77,0.00,23.07,28.17,30.98,6.08,31.79,1012.84,2037.00,2497.32,2586.60,2808.43,350.44,323.20,16.55,0000 0000 0000 0000 000000
2014-03-12 00:24:25,0.34,2.77,0.00,23.07,28.17,31.01,6.05,31.79,1012.82,2037.00,2496.80,2586.22,2808.14,350.82,323.52,16.56,0000 0000 0000 0000 000000
2014-03-12 00:25:25,0.26,2.77,0.00,23.08,28.17,31.00,6.10,31.88,1012.85,2037.00,2496.30,2585.98,2807.75,349.71,322.40,16.56,0000 0000 0000 0000 000000
2014-03-12 00:26:25,0.27,2.77,0.00,23.09,28.17,30.97,6.02,31.58,1012.88,2037.00,2495.83,2585.46,2807.28,350.15,322.81,16.57,0000 0000 0000 0000 000000
2014-03-12 00:27:26,0.34,2.78,0.00,23.09,28.17,30.99,5.79,31.63,1012.80,2037.00,2495.32,2585.15,2806.78,349.85,322.43,16.58,0000 0000 0000 0000 000000
2014-03-12 00:28:26,0.28,2.78,0.00,23.11,28.18,30.96,6.02,31.63,1012.82,2037.00,2494.93,2584.70,2806.31,350.24,322.91,16.58,0000 0000 0000 0000 000000
2014-03-12 00:29:26,0.29,2.78,0.00,23.12,28.19,30.95,5.87,32.04,1012.84,2037.00,2494.38,2584.26,2805.92,349.29,322.01,16.59,0000 0000 0000 0000 000000
2014-03-12 00:30:26,0.32,2.78,0.00,23.12,28.20,30.94,6.03,31.58,1012.75,2037.00,2493.88,2583.86,2805.37,350.82,322.93,16.59,0000 0000 0000 0000 000000
2014-03-12 00:31:26,0.33,2.78,0.00,23.13,28.20,30.94,6.14,31.92,1012.77,2036.99,2493.33,2583.34,2805.05,351.17,323.26,16.60,0000 0000 0000 0000 000000
2014-03-12 00:32:27,0.34,2.79,0.00,23.14,28.20,30.94,6.07,31.83,1012.77,2036.99,2492.83,2583.09,2804.52,350.08,322.98,16.61,0000 0000 0000 0000 000000
2014-03-12 00:33:27,0.27,2.79,0.00,23.14,28.20,30.94,6.03,31.71,1012.84,2036.99,2492.30,2582.63,2804.19,350.23,322.85,16.61,0000 0000 0000 0000 000000
2014-03-12 00:34:27,0.29,2.79,0.00,23.15,28.21,30.92,6.16,31.54,1012.78,2036.99,2491.97,2582.23,2803.87,349.72,322.72,16.62,0000 0000 0000 0000 000000
2014-03-12 00:35:27,0.25,2.79,0.00,23.15,28.22,30.95,6.03,31.63,1012.79,2036.99,2491.38,2582.01,2803.36,350.39,322.95,16.62,0000 0000 0000 0000 000000
2014-03-12 00:36:28,0.28,2.79,0.00,23.15,28.22,30.94,6.02,31.83,1012.80,2036.99,2490.91,2581.51,2803.08,349.35,321.99,16.63,0000 0000 0000 0000 000000
2014-03-12 00:37:28,0.31,2.79,0.00,23.17,28.22,30.97,5.92,31.50,1012.74,2036.99,2490.36,2581.18,2802.51,349.93,322.63,16.63,0000 0000 0000 0000 000000
2014-03-12 00:38:28,0.31,2.80,0.00,23.17,28.22,30.97,6.00,31.58,1012.76,2036.99,2489.85,2580.76,2802.16,349.72,322.36,16.64,0000 0000 0000 0000 000000
2014-03-12 00:39:28,0.30,2.80,0.00,23.18,28.23,30.98,6.03,31.54,1012.72,2036.98,2489.30,2580.29,2801.61,349.82,322.37,16.65,0000 0000 0000 0000 000000
2014-03-12 00:40:28,0.34,2.80,0.00,23.19,28.25,30.97,6.06,31.75,1012.72,2036.98,2488.71,2579.96,2801.22,350.50,322.97,16.65,0000 0000 0000 0000 000000
2014-03-12 00:41:29,0.30,2.80,0.00,23.19,28.25,30.95,5.94,31.54,1012.72,2036.98,2488.25,2579.43,2800.83,349.50,322.05,16.66,0000 0000 0000 0000 000000
2014-03-12 00:42:29,0.32,2.80,0.00,23.21,28.25,30.98,6.11,31.71,1012.71,2036.96,2487.65,2579.15,2800.32,351.08,323.21,16.66,0000 0000 0000 0000 000000
2014-03-12 00:43:29,0.28,2.81,0.00,23.22,28.25,30.99,5.98,31.42,1012.71,2036.95,2487.22,2578.75,2800.03,350.72,323.58,16.67,0000 0000 0000 0000 000000
2014-03-12 00:44:29,0.29,2.81,0.00,23.22,28.25,31.04,6.11,31.79,1012.71,2036.97,2486.61,2578.29,2799.48,349.04,321.60,16.68,0000 0000 0000 0000 000000
2014-03-12 00:45:30,0.34,2.81,0.00,23.22,28.27,31.04,6.04,31.75,1012.71,2036.97,2486.19,2578.03,2799.16,350.08,322.44,16.68,0000 0000 0000 0000 000000
2014-03-12 00:46:30,0.27,2.81,0.00,23.24,28.27,31.04,6.06,31.58,1012.69,2036.94,2485.63,2577.48,2798.62,350.69,323.08,16.69,0000 0000 0000 0000 000000
2014-03-12 00:47:30,0.31,2.81,0.00,23.24,28.27,31.03,5.96,31.75,1012.70,2036.91,2485.12,2577.17,2798.22,350.89,323.27,16.69,0000 0000 0000 0000 000000
2014-03-12 00:48:30,0.27,2.81,0.00,23.24,28.27,31.00,5.97,31.42,1012.57,2036.79,2484.47,2576.69,2797.66,348.24,320.96,16.70,0000 0000 0000 0000 000000
2014-03-12 00:49:31,0.22,2.82,0.00,23.25,28.28,31.00,5.92,31.92,1012.53,2036.72,2484.05,2576.26,2797.25,349.36,321.81,16.71,0000 0000 0000 0000 000000
2014-03-12 00:50:31,0.26,2.82,0.00,23.25,28.29,31.01,6.04,31.63,1012.54,2036.73,2483.43,2575.94,2796.91,350.87,323.38,16.71,0000 0000 0000 0000 000000
2014-03-12 00:51:31,0.30,2.82,0.00,23.27,28.30,31.00,6.00,31.46,1012.46,2036.61,2482.93,2575.40,2796.37,350.36,322.69,16.72,0000 0000 0000 0000 000000
2014-03-12 00:52:32,0.24,2.82,0.00,23.27,28.30,31.01,5.94,31.54,1012.33,2036.52,2482.35,2575.12,2796.06,349.62,322.02,16.72,0000 0000 0000 0000 000000
2014-03-12 00:53:32,0.21,2.82,0.00,23.27,28.30,31.00,5.94,31.08,1012.30,2036.35,2481.86,2574.65,2795.51,350.66,322.73,16.73,0000 0000 0000 0000 000000
2014-03-12 00:54:32,0.16,2.82,0.00,23.27,28.31,31.02,6.05,31.63,1012.24,2036.24,2481.32,2574.24,2795.14,350.44,322.50,16.73,0000 0000 0000 0000 000000
2014-03-12 00:55:32,0.24,2.82,0.00,23.28,28.32,31.01,6.02,31.46,1012.24,2036.37,2480.80,2573.98,2794.67,350.58,322.81,16.74,0000 0000 0000 0000 000000
2014-03-12 00:56:33,0.35,2.83,0.00,23.29,28.32,31.03,6.04,31.42,1012.23,2036.35,2480.29,2573.44,2794.25,351.43,323.57,16.75,0000 0000 0000 0000 000000
2014-03-12 00:57:33,0.29,2.83,0.00,23.29,28.32,31.04,5.94,31.42,1012.23,2036.25,2479.80,2573.12,2793.83,349.38,322.21,16.75,0000 0000 0000 0000 000000
2014-03-12 00:58:34,0.23,2.83,0.00,23.30,28.32,31.05,6.07,31.75,1012.25,2036.20,2479.28,2572.68,2793.32,350.97,323.13,16.76,0000 0000 0000 0000 000000
2014-03-12 00:59:34,0.32,2.83,0.00,23.32,28.34,31.07,5.95,31.46,1012.29,2036.22,2478.63,2572.25,2792.97,350.39,322.81,16.76,0000 0000 0000 0000 000000
2014-03-12 01:00:34,0.33,2.83,0.00,23.32,28.35,31.06,6.06,31.58,1012.27,2036.20,2478.18,2571.87,2792.41,349.84,322.29,16.77,0000 0000 0000 0000 000000
2014-03-12 01:01:34,0.29,2.83,0.00,23.33,28.35,31.07,6.08,31.71,1012.25,2036.10,2477.55,2571.34,2792.07,349.86,322.02,16.78,0000 0000 0000 0000 000000
2014-03-12 01:02:35,0.27,2.84,0.00,23.33,28.35,31.06,5.88,31.50,1012.25,2036.08,2477.09,2571.06,2791.53,349.18,321.07,16.78,0000 0000 0000 0000 000000
2014-03-12 01:03:35,0.29,2.84,0.00,23.33,28.35,31.10,6.05,31.63,1012.24,2036.06,2476.47,2570.53,2791.15,349.31,321.58,16.79,0000 0000 0000 0000 000000
2014-03-12 01:04:35,0.31,2.84,0.00,23.34,28.37,31.17,6.02,31.46,1012.27,2036.05,2475.99,2570.19,2790.61,350.04,321.95,16.79,0000 0000 0000 0000 000000
2014-03-12 01:05:36,0.29,2.84,0.00,23.34,28.37,31.12,6.07,31.38,1012.28,2036.05,2475.39,2569.80,2790.21,350.69,323.58,16.80,0000 0000 0000 0000 000000
2014-03-12 01:06:36,0.33,2.85,0.00,23.35,28.37,31.08,5.99,31.50,1012.36,2036.05,2474.78,2569.31,2789.77,349.82,322.07,16.80,0000 0000 0000 0000 000000
2014-03-12 01:07:36,0.35,2.85,0.00,23.35,28.37,31.08,5.93,31.88,1012.25,2036.06,2474.24,2568.96,2789.28,349.77,321.84,16.81,0000 0000 0000 0000 000000
2014-03-12 01:08:37,0.34,2.85,0.00,23.36,28.39,31.12,5.92,31.42,1012.23,2036.03,2473.61,2568.40,2788.85,349.91,322.22,16.82,0000 0000 0000 0000 000000
2014-03-12 01:09:37,0.33,2.85,0.00,23.36,28.40,31.16,5.93,31.79,1012.25,2036.01,2473.14,2568.12,2788.32,349.92,322.10,16.82,0000 0000 0000 0000 000000
2014-03-12 01:10:37,0.30,2.85,0.00,23.37,28.40,31.15,5.97,31.50,1012.23,2036.00,2472.53,2567.58,2787.98,350.08,322.11,16.83,0000 0000 0000 0000 000000
2014-03-12 01:11:37,0.32,2.85,0.00,23.37,28.40,31.12,6.17,31.92,1012.26,2036.00,2472.12,2567.20,2787.40,350.91,323.01,16.83,0000 0000 0000 0000 000000
2014-03-12 01:12:38,0.31,2.86,0.00,23.37,28.40,31.10,5.94,31.75,1012.24,2036.00,2471.48,2566.78,2787.09,349.35,321.57,16.84,0000 0000 0000 0000 000000
2014-03-12 01:13:38,0.31,2.86,0.00,23.38,28.42,31.13,5.95,31.75,1012.22,2036.00,2470.95,2566.30,2786.51,349.25,321.47,16.85,0000 0000 0000 0000 000000
2014-03-12 01:14:38,0.35,2.86,0.00,23.38,28.42,31.12,5.97,31.88,1012.22,2036.00,2470.36,2565.96,2786.13,349.88,322.12,16.85,0000 0000 0000 0000 000000
2014-03-12 01:15:38,0.34,2.86,0.00,23.38,28.42,31.15,6.14,31.79,1012.22,2036.00,2469.84,2565.43,2785.55,350.87,322.95,16.86,0000 0000 0000 0000 000000
2014-03-12 01:16:39,0.34,2.86,0.00,23.39,28.42,31.16,6.18,32.00,1012.22,2036.00,2469.29,2565.11,2785.18,351.47,323.49,16.86,0000 0000 0000 0000 000000
2014-03-12 01:17:39,0.32,2.87,0.00,23.40,28.43,31.21,5.90,31.71,1012.22,2036.00,2468.73,2564.56,2784.65,349.83,321.81,16.87,0000 0000 0000 0000 000000
2014-03-12 01:18:39,0.34,2.87,0.00,23.40,28.44,31.25,6.04,31.63,1012.22,2036.00,2468.26,2564.20,2784.22,350.23,322.55,16.88,0000 0000 0000 0000 000000
2014-03-12 01:19:40,0.30,2.87,0.00,23.40,28.45,31.19,6.05,31.50,1012.22,2036.00,2467.69,2563.87,2783.84,350.31,322.73,16.88,0000 0000 0000 0000 000000
2014-03-12 01:20:40,0.30,2.87,0.00,23.42,28.45,31.17,6.05,31.58,1012.22,2036.00,2467.15,2563.36,2783.32,349.99,322.10,16.89,0000 0000 0000 0000 000000
2014-03-12 01:21:40,0.35,2.87,0.00,23.42,28.45,31.18,5.99,31.63,1012.18,2036.00,2466.51,2563.07,2782.83,349.81,321.69,16.89,0000 0000 0000 0000 000000
2014-03-12 01:22:40,0.32,2.87,0.00,23.42,28.47,31.18,5.82,31.58,1012.20,2036.00,2466.11,2562.55,2782.32,349.58,321.50,16.90,0000 0000 0000 0000 000000
2014-03-12 01:23:41,0.33,2.88,0.00,23.42,28.47,31.22,5.98,31.79,1012.20,2036.00,2465.51,2562.20,2781.98,349.19,321.36,16.90,0000 0000 0000 0000 000000
2014-03-12 01:24:41,0.30,2.88,0.00,23.42,28.47,31.23,5.95,31.58,1012.20,2036.00,2465.02,2561.75,2781.40,350.08,321.89,16.91,0000 0000 0000 0000 000000
2014-03-12 01:25:41,0.34,2.88,0.00,23.42,28.47,31.24,5.95,31.75,1012.21,2036.00,2464.42,2561.28,2781.11,350.41,322.43,16.92,0000 0000 0000 0000 000000
2014-03-12 01:26:42,0.32,2.88,0.00,23.42,28.48,31.25,6.01,31.63,1012.22,2035.99,2463.97,2560.99,2780.55,349.25,321.30,16.92,0000 0000 0000 0000 000000
2014-03-12 01:27:42,0.31,2.89,0.00,23.44,28.50,31.24,6.02,31.54,1012.22,2035.99,2463.37,2560.43,2780.18,350.06,322.45,16.93,0000 0000 0000 0000 000000
2014-03-12 01:28:42,0.34,2.89,0.00,23.44,28.50,31.30,5.92,31.75,1012.22,2035.99,2462.74,2560.15,2779.66,350.07,322.20,16.93,0000 0000 0000 0000 000000
2014-03-12 01:29:43,0.30,2.89,0.00,23.44,28.50,31.32,6.06,31.46,1012.21,2035.98,2462.22,2559.66,2779.22,350.65,322.68,16.94,0000 0000 0000 0000 000000
2014-03-12 01:30:43,0.35,2.89,0.00,23.45,28.50,31.31,5.86,32.13,1012.22,2035.99,2461.59,2559.24,2778.70,349.92,322.00,16.95,0000 0000 0000 0000 000000
2014-03-12 01:31:43,0.33,2.89,0.00,23.45,28.51,31.29,6.13,31.96,1012.22,2035.98,2461.04,2559.04,2778.25,350.98,322.98,16.95,0000 0000 0000 0000 000000
2014-03-12 01:32:44,0.30,2.90,0.00,23.45,28.52,31.30,6.05,31.67,1012.22,2035.98,2460.41,2558.51,2777.86,350.51,322.55,16.96,0000 0000 0000 0000 000000
2014-03-12 01:33:44,0.34,2.90,0.00,23.45,28.52,31.32,5.91,31.67,1012.22,2035.99,2460.09,2558.18,2777.34,349.59,321.70,16.96,0000 0000 0000 0000 000000
2014-03-12 01:34:44,0.28,2.90,0.00,23.45,28.52,31.37,5.98,31.63,1012.22,2035.98,2459.49,2557.91,2777.01,350.03,322.36,16.97,0000 0000 0000 0000 000000
2014-03-12 01:35:45,0.27,2.90,0.00,23.45,28.53,31.37,5.98,31.67,1012.22,2035.94,2458.99,2557.39,2776.44,350.10,322.22,16.97,0000 0000 0000 0000 000000
2014-03-12 01:36:45,0.32,2.90,0.00,23.45,28.54,31.35,5.91,31.58,1012.22,2035.91,2458.39,2557.11,2776.13,349.61,321.71,16.98,0000 0000 0000 0000 000000
2014-03-12 01:37:45,0.28,2.90,0.00,23.45,28.55,31.38,5.99,31.46,1012.22,2035.85,2457.90,2556.55,2775.56,349.94,322.02,16.99,0000 0000 0000 0000 000000
2014-03-12 01:38:45,0.26,2.91,0.00,23.45,28.55,31.37,5.99,31.42,1012.22,2035.68,2457.31,2556.17,2775.15,350.69,322.72,16.99,0000 0000 0000 0000 000000
2014-03-12 01:39:46,0.18,2.91,0.00,23.45,28.55,31.38,6.04,31.46,1012.22,2035.51,2456.66,2555.68,2774.56,350.61,322.45,17.00,0000 0000 0000 0000 000000
2014-03-12 01:40:46,0.29,2.91,0.00,23.46,28.55,31.40,6.04,31.83,1012.22,2035.48,2456.19,2555.25,2774.18,349.93,321.90,17.00,0000 0000 0000 0000 000000
2014-03-12 01:41:46,0.25,2.91,0.00,23.46,28.57,31.44,6.06,31.58,1012.22,2035.41,2455.59,2554.83,2773.66,350.81,322.81,17.01,0000 0000 0000 0000 000000
2014-03-12 01:42:47,0.32,2.91,0.00,23.46,28.57,31.46,6.09,31.58,1012.22,2035.40,2455.08,2554.32,2773.24,350.50,322.69,17.02,0000 0000 0000 0000 000000
2014-03-12 01:43:47,0.29,2.91,0.00,23.47,28.57,31.45,6.03,31.38,1012.22,2035.32,2454.48,2554.08,2772.75,351.05,323.15,17.02,0000 0000 0000 0000 000000
2014-03-12 01:44:47,0.26,2.91,0.00,23.47,28.57,31.44,5.99,31.38,1012.22,2035.36,2453.96,2553.57,2772.28,350.91,323.27,17.03,0000 0000 0000 0000 000000
2014-03-12 01:45:47,0.34,2.92,0.00,23.47,28.58,31.48,6.04,31.67,1012.22,2035.25,2453.37,2553.20,2771.85,349.07,321.48,17.03,0000 0000 0000 0000 000000
2014-03-12 01:46:47,0.23,2.92,0.00,23.47,28.60,31.47,6.06,31.50,1012.22,2035.16,2452.85,2552.72,2771.32,351.83,323.74,17.04,0000 0000 0000 0000 000000
2014-03-12 01:47:48,0.28,2.92,0.00,23.47,28.60,31.50,6.04,31.71,1012.21,2035.10,2452.30,2552.28,2770.95,350.21,322.25,17.05,0000 0000 0000 0000 000000
2014-03-12 01:48:48,0.27,2.92,0.00,23.47,28.60,31.50,6.01,31.71,1012.18,2035.07,2451.68,2552.01,2770.39,350.81,322.78,17.05,0000 0000 0000 0000 000000
2014-03-12 01:49:48,0.30,2.92,0.00,23.47,28.60,31.52,5.97,31.50,1012.20,2035.09,2451.19,2551.46,2770.09,350.06,321.73,17.06,0000 0000 0000 0000 000000
2014-03-12 01:50:49,0.32,2.93,0.00,23.47,28.61,31.52,6.01,31.75,1012.22,2035.11,2450.58,2551.09,2769.52,349.44,321.54,17.06,0000 0000 0000 0000 000000
2014-03-12 01:51:49,0.38,2.93,0.00,23.48,28.62,31.53,5.88,31.63,1012.22,2035.09,2450.04,2550.51,2769.15,350.49,322.49,17.07,0000 0000 0000 0000 000000
2014-03-12 01:52:49,0.36,2.93,0.00,23.48,28.62,31.52,5.94,31.46,1012.20,2035.04,2449.42,2550.17,2768.54,350.79,322.59,17.07,0000 0000 0000 0000 000000
2014-03-12 01:53:49,0.28,2.93,0.00,23.49,28.62,31.56,6.05,31.75,1012.17,2035.02,2448.89,2549.70,2768.17,349.89,322.11,17.08,0000 0000 0000 0000 000000
2014-03-12 01:54:50,0.34,2.93,0.00,23.49,28.62,31.52,6.02,31.50,1012.16,2035.01,2448.29,2549.25,2767.60,350.05,322.05,17.09,0000 0000 0000 0000 000000
2014-03-12 01:55:50,0.35,2.94,0.00,23.49,28.63,31.53,5.92,31.54,1012.12,2035.01,2447.64,2548.80,2767.18,349.16,321.23,17.09,0000 0000 0000 0000 000000
2014-03-12 01:56:50,0.37,2.94,0.00,23.49,28.64,31.56,5.98,31.50,1012.18,2035.01,2447.17,2548.30,2766.61,349.96,321.97,17.10,0000 0000 0000 0000 000000
2014-03-12 01:57:50,0.35,2.94,0.00,23.50,28.65,31.58,6.05,31.63,1012.09,2035.00,2446.52,2547.95,2766.20,350.10,321.97,17.10,0000 0000 0000 0000 000000
2014-03-12 01:58:50,0.34,2.94,0.00,23.50,28.65,31.57,5.98,31.67,1012.18,2035.00,2445.96,2547.39,2765.65,349.56,321.31,17.11,0000 0000 0000 0000 000000
2014-03-12 01:59:51,0.38,2.94,0.00,23.51,28.65,31.59,6.11,31.54,1012.17,2035.00,2445.35,2547.08,2765.23,351.00,322.92,17.12,0000 0000 0000 0000 000000
2014-03-12 02:00:51,0.31,2.95,0.00,23.50,28.65,31.58,6.02,31.67,1012.16,2035.00,2444.84,2546.53,2764.73,349.90,321.72,17.12,0000 0000 0000 0000 000000
2014-03-12 02:01:51,0.37,2.95,0.00,23.52,28.67,31.59,5.88,31.25,1012.19,2035.00,2444.30,2546.19,2764.27,349.83,321.83,17.13,0000 0000 0000 0000 000000
2014-03-12 02:02:52,0.29,2.95,0.00,23.52,28.67,31.59,6.04,31.58,1012.20,2035.00,2443.71,2545.78,2763.82,350.44,322.92,17.13,0000 0000 0000 0000 000000
2014-03-12 02:03:52,0.37,2.95,0.00,23.52,28.67,31.60,5.88,31.63,1012.21,2035.00,2443.21,2545.32,2763.32,349.24,321.61,17.14,0000 0000 0000 0000 000000
2014-03-12 02:04:52,0.32,2.95,0.00,23.52,28.67,31.62,6.07,31.50,1012.17,2035.00,2442.63,2545.00,2762.95,349.69,321.69,17.15,0000 0000 0000 0000 000000
2014-03-12 02:05:53,0.33,2.96,0.00,23.52,28.67,31.59,6.14,31.63,1012.19,2035.00,2442.08,2544.43,2762.38,351.24,323.64,17.15,0000 0000 0000 0000 000000
2014-03-12 02:06:53,0.37,2.96,0.00,23.52,28.69,31.60,6.10,31.63,1012.18,2035.00,2441.43,2544.13,2762.00,350.39,322.35,17.16,0000 0000 0000 0000 000000
2014-03-12 02:07:53,0.29,2.96,0.00,23.52,28.70,31.63,6.02,31.63,1012.18,2035.00,2440.85,2543.60,2761.43,349.51,321.53,17.16,0000 0000 0000 0000 000000
2014-03-12 02:08:53,0.41,2.96,0.00,23.52,28.70,31.59,5.98,31.50,1012.21,2035.00,2440.29,2543.21,2761.02,349.84,321.85,17.17,0000 0000 0000 0000 000000
2014-03-12 02:09:54,0.31,2.96,0.00,23.53,28.70,31.62,5.98,31.42,1012.18,2035.00,2439.71,2542.70,2760.44,350.82,322.72,17.17,0000 0000 0000 0000 000000
2014-03-12 02:10:54,0.40,2.97,0.00,23.54,28.70,31.64,6.09,31.46,1012.11,2035.00,2439.21,2542.26,2760.11,350.67,322.10,17.18,0000 0000 0000 0000 000000
2014-03-12 02:11:54,0.29,2.97,0.00,23.53,28.70,31.63,6.16,31.88,1012.14,2035.00,2438.56,2541.90,2759.51,351.19,323.12,17.19,0000 0000 0000 0000 000000
2014-03-12 02:12:54,0.38,2.97,0.00,23.53,28.71,31.65,6.11,31.92,1012.02,2035.00,2438.04,2541.38,2759.15,351.21,323.04,17.19,0000 0000 0000 0000 000000
2014-03-12 02:13:55,0.34,2.97,0.00,23.53,28.72,31.62,5.93,31.79,1011.88,2034.99,2437.43,2541.07,2758.61,349.88,321.64,17.20,0000 0000 0000 0000 000000
2014-03-12 02:14:55,0.31,2.97,0.00,23.54,28.72,31.64,5.98,31.75,1011.86,2034.99,2436.91,2540.51,2758.19,349.02,321.17,17.20,0000 0000 0000 0000 000000
2014-03-12 02:15:55,0.38,2.98,0.00,23.54,28.72,31.65,6.17,31.54,1011.83,2034.97,2436.31,2540.16,2757.64,351.18,322.88,17.21,0000 0000 0000 0000 000000
2014-03-12 02:16:55,0.29,2.98,0.00,23.54,28.72,31.66,6.02,31.63,1011.80,2034.96,2435.68,2539.67,2757.19,349.81,321.91,17.22,0000 0000 0000 0000 000000
2014-03-12 02:17:55,0.39,2.98,0.00,23.55,28.73,31.63,6.07,31.63,1011.75,2034.96,2435.15,2539.22,2756.64,350.49,321.72,17.22,0000 0000 0000 0000 000000
2014-03-12 02:18:56,0.35,2.98,0.00,23.55,28.74,31.64,6.07,31.67,1011.73,2034.98,2434.49,2538.72,2756.20,349.89,321.82,17.23,0000 0000 0000 0000 000000
2014-03-12 02:19:56,0.40,2.98,0.00,23.55,28.75,31.68,6.06,32.08,1011.73,2034.98,2433.90,2538.27,2755.69,349.27,321.14,17.23,0000 0000 0000 0000 000000
2014-03-12 02:20:56,0.36,2.99,0.00,23.57,28.75,31.63,6.07,31.50,1011.73,2034.97,2433.28,2537.89,2755.23,350.65,322.39,17.24,0000 0000 0000 0000 000000
2014-03-12 02:21:56,0.35,2.99,0.00,23.57,28.75,31.66,6.14,31.58,1011.73,2034.93,2432.65,2537.35,2754.77,350.94,322.66,17.24,0000 0000 0000 0000 000000
2014-03-12 02:22:57,0.36,2.99,0.00,23.57,28.75,31.70,6.17,31.79,1011.73,2034.93,2432.20,2537.01,2754.27,349.38,320.98,17.25,0000 0000 0000 0000 000000
2014-03-12 02:23:57,0.28,2.99,0.00,23.57,28.76,31.70,6.00,31.75,1011.73,2034.88,2431.57,2536.44,2753.69,351.32,322.69,17.26,0000 0000 0000 0000 000000
2014-03-12 02:24:57,0.36,3.00,0.00,23.57,28.77,31.69,6.05,31.33,1011.73,2034.89,2431.06,2536.14,2753.26,351.21,323.04,17.26,0000 0000 0000 0000 000000
2014-03-12 02:25:57,0.30,3.00,0.00,23.57,28.77,31.69,6.04,31.63,1011.73,2034.85,2430.45,2535.63,2752.82,350.02,321.81,17.27,0000 0000 0000 0000 000000
2014-03-12 02:26:57,0.37,3.00,0.00,23.57,28.77,31.68,5.88,31.67,1011.73,2034.86,2429.95,2535.22,2752.30,350.04,321.53,17.27,0000 0000 0000 0000 000000
2014-03-12 02:27:58,0.33,3.00,0.00,23.57,28.77,31.73,5.93,31.58,1011.73,2034.85,2429.36,2534.84,2751.98,349.63,321.45,17.28,0000 0000 0000 0000 000000
2014-03-12 02:28:58,0.31,3.00,0.00,23.57,28.78,31.76,5.98,31.46,1011.73,2034.78,2428.79,2534.32,2751.42,351.05,322.76,17.29,0000 0000 0000 0000 000000
2014-03-12 02:29:58,0.26,3.00,0.00,23.57,28.78,31.74,6.13,31.67,1011.73,2034.68,2428.24,2533.90,2751.08,351.18,322.88,17.29,0000 0000 0000 0000 000000
2014-03-12 02:30:58,0.24,3.01,0.00,23.57,28.80,31.75,6.03,31.54,1011.73,2034.47,2427.56,2533.35,2750.47,349.84,321.64,17.30,0000 0000 0000 0000 000000
2014-03-12 02:31:58,0.21,3.01,0.00,23.57,28.80,31.76,6.12,31.67,1011.73,2034.31,2426.95,2533.00,2750.10,350.77,322.50,17.30,0000 0000 0000 0000 000000
2014-03-12 02:32:59,0.26,3.01,0.00,23.57,28.80,31.75,5.92,31.71,1011.72,2034.41,2426.37,2532.44,2749.52,348.80,320.68,17.31,0000 0000 0000 0000 000000
2014-03-12 02:33:59,0.40,3.01,0.00,23.57,28.80,31.76,6.02,31.33,1011.73,2034.33,2425.78,2532.12,2749.17,351.04,322.74,17.31,0000 0000 0000 0000 000000
2014-03-12 02:34:59,0.26,3.01,0.00,23.58,28.80,31.78,5.88,31.63,1011.73,2034.21,2425.17,2531.62,2748.62,348.68,320.56,17.32,0000 0000 0000 0000 000000
2014-03-12 02:35:59,0.29,3.01,0.00,23.58,28.80,31.76,5.98,31.71,1011.73,2034.16,2424.51,2531.22,2748.21,350.18,321.93,17.33,0000 0000 0000 0000 000000